sat.trackr.live / text

‹ back to catalog

STARLINK-37175

NORAD 68401 · 2026-063X

PAYLOAD ACTIVE UNKNOWN

§ Identity

Operator
Country
US
Launch date
2026-03-26
Launch site
AFWTR
Launch vehicle
Mass (kg)
RCS (m²)

Purposes: comms

External: N2YO · Heavens-Above · Gunter

§ Orbital elements

Epoch: 2026-09-19T16:48:18.337536Z

Period
93.91 min
Inclination
97.2832°
Eccentricity
0.0000600
Mean motion
15.33447650 rev/d
Perigee alt
465.1 km
Apogee alt
465.9 km
Semi-major
6,843.7 km
B*
8.6165e-4
RAAN
43.5332°
Arg perigee
100.2158°
Mean anomaly
259.9152°
Rev number
2,762

§ Raw data

STARLINK-371751 68401U 26063X   26262.70021224  .00027847  00000+0  86165-3 0  99982 68401  97.2832  43.5332 0000600 100.2158 259.9152 15.33447650 27623

JSON: /api/v1/satellites/68401 · /tle

For live sub-satellite position, see the globe view (requires WebGL).

§ Visibility from observer

Set your observer location to see the next 7 days of passes ≥ 10°. The values pass through the URL so the page stays shareable.

No JS? Fill the form by hand. The geolocation button needs JavaScript.